FW4072 Weather Reports


Display with metric or nautical units.
time (UTC)temp
F
wind
direction
speed
MPH
gust
MPH
rain 1hr
in
rain 24hr
in
rain mn
in
humidity
%
barometer
mb
20260901115230 89 0.0 2.0 0.00 0.00 0.00 1018.2
20260901114329 89 0.0 0.0 0.00 0.00 0.00 1018.1
20260901113429 89 135 1.0 3.0 0.00 0.00 0.00 1018.2
20260901112528 89 0.0 1.0 0.00 0.00 0.00 1018.2
20260901111622 89 0.0 2.0 0.00 0.00 0.00 1018.0
20260901110723 89 0.0 0.0 0.00 0.00 0.00 1018.1
20260901105843 91 0.0 1.0 0.00 0.00 0.00 1018.1
20260901104020 92 135 1.0 4.0 0.00 0.00 0.00 1018.1
20260901103119 93 1.0 7.0 0.00 0.00 0.00 1018.1
20260901102218 92 0.0 4.0 0.00 0.00 0.00 1018.1
20260901101318 92 135 1.0 2.0 0.00 0.00 0.00 1018.1
20260901100417 91 135 1.0 2.0 0.00 0.00 0.00 1018.0
20260901095517 92 113 1.0 2.0 0.00 0.00 0.00 1018.1
20260901094616 92 135 2.0 4.0 0.00 0.00 0.00 1018.1
20260901093711 91 113 1.0 4.0 0.00 0.00 0.00 1018.1
20260901092850 91 131 1.0 4.0 0.00 0.00 0.00 1018.1
20260901091909 92 158 1.0 3.0 0.00 0.00 0.00 1018.2
20260901090108 89 0.0 2.0 0.00 0.00 0.00 1018.1
20260901085207 89 158 2.0 6.0 0.00 0.00 0.00 1018.1
20260901084307 90 135 2.0 4.0 0.00 0.00 0.00 1018.3
20260901083406 89 1.0 4.0 0.00 0.00 0.00 1018.1
20260901082507 87 135 2.0 4.0 0.00 0.00 0.00 11 1018.4
20260901081604 86 0.0 3.0 0.00 0.00 0.00 11 1018.5
20260901080704 86 1.0 5.0 0.00 0.00 0.00 12 1018.4
20260901075818 85 0.0 2.0 0.00 0.00 0.00 16 1018.4
20260901074858 81 0.0 2.0 0.00 0.00 0.00 21 1018.6
20260901073056 79 0.0 0.0 0.00 0.00 0.00 22 1018.5
20260901072216 79 0.0 2.0 0.00 0.00 0.00 22 1018.5
20260901071255 80 0.0 1.0 0.00 0.00 0.00 23 1018.4
20260901070416 80 0.0 2.0 0.00 0.00 0.00 23 1018.4
20260901065454 81 0.0 2.0 0.00 0.00 0.00 23 1018.4
20260901064553 82 0.0 4.0 0.00 0.00 0.00 25 1018.3
20260901063653 81 0.0 0.0 0.00 0.00 0.00 27 1018.2
20260901062752 81 0.0 2.0 0.00 0.00 0.00 27 1018.4
20260901061907 80 0.0 3.0 0.00 0.00 0.00 30 1018.3
20260901060046 78 0.0 0.0 0.00 0.00 0.00 35 1018.2
20260901055145 76 0.0 1.0 0.00 0.00 0.00 38 1018.3
20260901054325 75 135 1.0 2.0 0.00 0.00 0.00 41 1018.2
20260901053344 73 0.0 0.0 0.00 0.00 0.00 46 1018.2
20260901052443 70 0.0 0.0 0.00 0.00 0.00 51 1018.3
20260901051544 67 0.0 1.0 0.00 0.00 0.00 54 1018.3
20260901050641 65 0.0 0.0 0.00 0.00 0.00 58 1018.4
20260901045741 64 0.0 0.0 0.00 0.00 0.00 61 1018.5
20260901044841 62 0.0 0.0 0.00 0.00 0.00 64 1018.3
20260901043037 61 0.0 0.0 0.00 0.00 0.00 67 1018.2
20260901042131 61 0.0 0.0 0.00 0.00 0.00 68 1018.3
20260901041230 60 0.0 0.0 0.00 0.00 0.00 68 1018.1
20260901040329 60 0.0 0.0 0.00 0.00 0.00 69 1018.2
20260901035429 60 0.0 0.0 0.00 0.00 0.00 69 1018.2
20260901034528 60 0.0 0.0 0.00 0.00 0.00 69 1018.2
20260901033622 60 0.0 0.0 0.00 0.00 0.00 69 1018.1
20260901032744 60 0.0 0.0 0.00 0.00 0.00 69 1018.1
20260901031821 60 0.0 0.0 0.00 0.00 0.00 67 1018.0
20260901030020 60 0.0 0.0 0.00 0.00 0.00 67 1018.0
20260901025121 60 0.0 0.0 0.00 0.00 0.00 66 1018.1
20260901024219 61 0.0 0.0 0.00 0.00 0.00 66 1018.3
20260901023318 61 0.0 0.0 0.00 0.00 0.00 65 1018.3
20260901022417 61 0.0 0.0 0.00 0.00 0.00 64 1018.3
20260901021517 61 0.0 0.0 0.00 0.00 0.00 64 1018.4
20260901020616 61 0.0 0.0 0.00 0.00 0.00 63 1018.4
20260901015710 61 0.0 0.0 0.00 0.00 0.00 63 1018.3
20260901014810 62 0.0 0.0 0.00 0.00 0.00 62 1018.2
20260901013909 62 0.0 0.0 0.00 0.00 0.00 60 1018.4
20260901012110 62 0.0 0.0 0.00 0.00 0.00 59 1018.5
20260901011207 62 0.0 0.0 0.00 0.00 0.00 59 1018.5
20260901010307 63 0.0 0.0 0.00 0.00 0.00 58 1018.6
20260901005428 63 0.0 0.0 0.00 0.00 0.00 58 1018.6
20260901004505 63 0.0 0.0 0.00 0.00 0.00 58 1018.7
20260901003604 63 0.0 0.0 0.00 0.00 0.00 57 1018.7
20260901002704 64 0.0 0.0 0.00 0.00 0.00 56 1018.7
20260901001841 64 0.0 0.0 0.00 0.00 0.00 56 1018.9
20260901000858 64 0.0 0.0 0.00 0.00 0.00 54 1019.0
20260831235119 64 0.0 0.0 0.00 0.00 0.00 52 1019.0
20260831234156 65 0.0 0.0 0.00 0.00 0.00 52 1019.0
20260831233255 65 0.0 0.0 0.00 0.00 0.00 51 1018.9
20260831232355 65 0.0 0.0 0.00 0.00 0.00 51 1019.0
20260831231454 66 0.0 0.0 0.00 0.00 0.00 50 1019.0
20260831230553 66 0.0 0.0 0.00 0.00 0.00 49 1019.1
20260831225653 67 0.0 0.0 0.00 0.00 0.00 48 1019.1
20260831224752 67 0.0 0.0 0.00 0.00 0.00 47 1019.1
20260831223848 67 0.0 0.0 0.00 0.00 0.00 46 1019.2
20260831222048 67 0.0 0.0 0.00 0.00 0.00 45 1019.3
20260831221145 68 0.0 0.0 0.00 0.00 0.00 44 1019.4
20260831220244 68 0.0 0.0 0.00 0.00 0.00 43 1019.4
20260831215343 69 0.0 0.0 0.00 0.00 0.00 41 1019.4
20260831214443 69 0.0 0.0 0.00 0.00 0.00 39 1019.4
20260831213542 70 0.0 0.0 0.00 0.00 0.00 38 1019.4
20260831212641 71 0.0 0.0 0.00 0.00 0.00 35 1019.5
20260831211740 71 0.0 0.0 0.00 0.00 0.00 35 1019.4
20260831205937 71 0.0 0.0 0.00 0.00 0.00 34 1019.4
20260831204842 71 0.0 2.0 0.00 0.00 0.00 35 1019.4
20260831203041 71 0.0 0.0 0.00 0.00 0.00 35 1019.5
20260831202139 72 0.0 0.0 0.00 0.00 0.00 35 1019.3
20260831201239 73 0.0 0.0 0.00 0.00 0.00 32 1019.3
20260831200338 73 0.0 0.0 0.00 0.00 0.00 31 1019.4
20260831195437 74 0.0 0.0 0.00 0.00 0.00 29 1019.4
20260831194537 74 0.0 2.0 0.00 0.00 0.00 29 1019.3
20260831193656 74 0.0 0.0 0.00 0.00 0.00 29 1019.2
20260831192735 75 0.0 0.0 0.00 0.00 0.00 28 1019.3
20260831191835 76 0.0 3.0 0.00 0.00 0.00 26 1019.3
20260831190033 76 0.0 0.0 0.00 0.00 0.00 25 1019.2
20260831185135 77 0.0 2.0 0.00 0.00 0.00 25 1019.3
20260831184233 77 0.0 0.0 0.00 0.00 0.00 25 1019.2
20260831183332 77 0.0 5.0 0.00 0.00 0.00 25 1019.1
20260831182431 78 0.0 1.0 0.00 0.00 0.00 25 1019.1
20260831181530 78 0.0 2.0 0.00 0.00 0.00 25 1019.0
20260831180710 78 0.0 2.0 0.00 0.00 0.00 25 1019.0
20260831175729 78 0.0 2.0 0.00 0.00 0.00 25 1018.9
20260831174830 79 0.0 2.0 0.00 0.00 0.00 24 1018.7
20260831173049 79 0.0 1.0 0.00 0.00 0.00 24 1018.6
20260831172127 80 0.0 1.0 0.00 0.00 0.00 24 1018.6
20260831171227 80 0.0 2.0 0.00 0.00 0.00 23 1018.3
20260831170325 80 0.0 2.0 0.00 0.00 0.00 24 1018.3
20260831165426 79 0.0 0.0 0.00 0.00 0.00 26 1018.1
20260831164544 80 0.0 0.0 0.00 0.00 0.00 25 1018.2
20260831163643 80 0.0 0.0 0.00 0.00 0.00 25 1018.0
20260831162723 81 0.0 0.0 0.00 0.00 0.00 23 1018.0
20260831161822 83 0.0 0.0 0.00 0.00 0.00 21 1018.0
20260831160021 84 0.0 0.0 0.00 0.00 0.00 18 1018.1
20260831155140 84 0.0 0.0 0.00 0.00 0.00 16 1018.2
20260831154219 85 0.0 0.0 0.00 0.00 0.00 14 1018.2
20260831153319 86 0.0 0.0 0.00 0.00 0.00 13 1018.1
20260831152418 86 0.0 1.0 0.00 0.00 0.00 13 1018.1
20260831151537 87 0.0 2.0 0.00 0.00 0.00 11 1018.2
20260831150638 87 0.0 1.0 0.00 0.00 0.00 12 1018.0
20260831145716 88 0.0 0.0 0.00 0.00 0.00 10 1018.0
20260831144815 88 0.0 1.0 0.00 0.00 0.00 1018.1
20260831143914 89 0.0 1.0 0.00 0.00 0.00 1018.2
20260831142114 89 0.0 0.0 0.00 0.00 0.00 1018.2
20260831141213 90 0.0 2.0 0.00 0.00 0.00 1018.2
20260831140313 92 0.0 1.0 0.00 0.00 0.00 1018.3
20260831135412 93 0.0 3.0 0.00 0.00 0.00 1018.2
20260831134511 95 0.0 2.0 0.00 0.00 0.00 1018.3
20260831133610 96 1.0 3.0 0.00 0.00 0.00 1018.3
20260831132711 96 135 1.0 3.0 0.00 0.00 0.00 1018.3
20260831131809 96 0.0 2.0 0.00 0.00 0.00 1018.3
20260831130908 95 0.0 2.0 0.00 0.00 0.00 1018.3
20260831125147 96 135 3.0 6.0 0.00 0.00 0.00 1018.5
20260831124227 96 0.0 0.0 0.00 0.00 0.00 1018.5
20260831123346 97 113 1.0 3.0 0.00 0.00 0.00 1018.6
20260831122405 96 0.0 1.0 0.00 0.00 0.00 1018.7
20260831121505 96 0.0 2.0 0.00 0.00 0.00 1018.8
20260831120605 96 0.0 2.0 0.00 0.00 0.00 1018.8
20260831115703 96 0.0 1.0 0.00 0.00 0.00 1019.0